Погода в Черневе

Россия / Псковская область     58°38′46″N   28°14′45″E
темп.,
°C
ветер,
м/с
пор.,
м/с
влажн.,
%
обл.,
%
осадки,
мм/ч
давл.,
гПа
погр.,
м
15 апреля, чт
чт1500:00+2ссв31079100 0.0 1025342
03:00+3св31173100 0.0 1026417
06:00+1ссв3107698 0.0 1027295
09:00+4св5105783 0.0 1027701
12:00+8св584246 0.0 10271171
15:00+10св683573 0.0 10261480
18:00+9св594063 0.0 10261260
21:00+4св51260100 0.0 1027584
16 апреля, пт
пт1600:00+3св4136884 0.0 1027525
03:00+3св41174100 0.0 1026491
06:00+3св41276100 0.0 1026503
09:00+4св51270100 0.0 1026451
12:00+7всв51161100 0.0 1027586
15:00+12всв6952100 0.0 1026998
18:00+11всв51052100 0.0 1026965
21:00+8всв51354100 0.0 1027616
17 апреля, сб
сб1700:00+6всв4136295 0.0 1028488
03:00+5всв4127166 0.0 1028393
06:00+3всв4127898 0.0 1029345
09:00+7всв5105941 0.0 1029478
12:00+12в574335 0.0 10291000
15:00+14в573785 0.0 10291342
18:00+14в473837 0.0 10281374
21:00+8всв39605 0.0 1029166
18 апреля, вс
вс1800:00+6всв39705 0.0 1030200
03:00+4всв39781 0.0 1031184
06:00+3в39800 0.0 1031200
09:00+8в49580 0.0 1031433
12:00+13в46410 0.0 10301269
15:00+15в46340 0.0 10291632
18:00+14вюв45390 0.0 10291619
21:00+8в23610 0.0 103050
19 апреля, пн
пн1900:00+6в27700 0.0 1030131
03:00+5в27770 0.0 1030121
06:00+4в37820 0.0 1030119
09:00+9вюв36590 0.0 1029338
12:00+14вюв46425 0.0 10281670
15:00+16вюв45355 0.0 10272266
18:00+15вюв353812 0.0 10252297
21:00+9в396320 0.0 1025159